Location: Marstown
(39.5056°N, 77.0820°W)
Time: 16:54:06
(UTC-04:00)

ISS - Visible Passes

Search period start: 20 August 2019 00:00
Search period end: 30 August 2019 00:00
Orbit: 410 x 420 km, 51.6° (Epoch: 21 August)

Date Brightness Start Highest point End Pass type
(mag) Time Alt. Az. Time Alt. Az. Time Alt. Az.
24 Aug -1.0 05:50:29 10° SSE 05:52:18 14° SE 05:54:08 10° E visible
26 Aug -2.7 05:48:01 10° SSW 05:51:10 40° SE 05:54:20 10° ENE visible
27 Aug -1.8 05:00:58 16° S 05:02:30 22° SE 05:05:10 10° E visible
28 Aug -0.9 04:14:25 12° ESE 04:14:25 12° ESE 04:15:21 10° ESE visible
28 Aug -3.7 05:47:18 13° WSW 05:50:11 67° NW 05:53:32 10° NE visible
29 Aug -3.7 05:00:39 48° SSW 05:01:23 67° SE 05:04:43 10° ENE visible
